Time,TemperatureF,DewpointF,PressureIn,WindDirection,WindDirectionDegrees,WindSpeedMPH,WindSpeedGustMPH,Humidity,HourlyPrecipIn,Conditions,Clouds,dailyrainin,SolarRadiationWatts/m^2,SoftwareType,DateUTC
2013-01-07 00:09:00,30.4,25.9,29.92,WNW,284,1.0,9.0,83,0.00,,OVC100,0.00,0.00,VWS V14.01,2013-01-07 05:09:00,
2013-01-07 00:19:00,30.3,26.1,29.92,WSW,245,4.0,6.0,84,0.00,,OVC100,0.00,0.00,VWS V14.01,2013-01-07 05:19:00,
2013-01-07 00:29:00,30.3,26.1,29.92,WSW,252,3.0,9.0,84,0.00,,OVC100,0.00,0.00,VWS V14.01,2013-01-07 05:29:00,
2013-01-07 00:39:00,30.5,26.0,29.92,West,281,2.0,8.0,83,0.00,,OVC100,0.00,0.00,VWS V14.01,2013-01-07 05:39:00,
2013-01-07 00:49:00,30.5,26.0,29.93,WSW,252,0.0,4.0,83,0.00,,CLR,0.00,0.00,VWS V14.01,2013-01-07 05:49:00,
2013-01-07 00:59:00,30.7,26.2,29.94,West,269,0.0,4.0,83,0.00,,CLR,0.00,0.00,VWS V14.01,2013-01-07 05:59:00,
2013-01-07 01:09:00,30.9,26.4,29.94,West,269,2.0,5.0,83,0.00,,CLR,0.00,0.00,VWS V14.01,2013-01-07 06:09:00,
2013-01-07 01:19:00,31.1,26.3,29.95,West,261,4.0,5.0,82,0.00,,CLR,0.00,0.00,VWS V14.01,2013-01-07 06:19:00,
2013-01-07 01:29:00,31.2,26.4,29.95,West,270,4.0,6.0,82,0.00,,CLR,0.00,0.00,VWS V14.01,2013-01-07 06:29:00,
2013-01-07 01:39:00,31.3,26.2,29.96,WSW,256,0.0,4.0,81,0.00,,CLR,0.00,0.00,VWS V14.01,2013-01-07 06:39:00,
2013-01-07 01:49:00,31.3,26.2,29.96,WSW,256,0.0,3.0,81,0.00,,FEW055,0.00,0.00,VWS V14.01,2013-01-07 06:49:00,
2013-01-07 01:59:00,31.4,26.2,29.96,West,268,4.0,5.0,81,0.00,,FEW055,0.00,0.00,VWS V14.01,2013-01-07 06:59:00,
2013-01-07 02:09:00,31.2,26.1,29.96,West,280,0.0,6.0,81,0.00,,FEW055,0.00,0.00,VWS V14.01,2013-01-07 07:09:00,
2013-01-07 02:19:00,31.2,26.1,29.96,West,281,3.0,7.0,81,0.00,,FEW055,0.00,0.00,VWS V14.01,2013-01-07 07:19:00,
2013-01-07 02:29:00,30.8,25.7,29.96,West,276,0.0,5.0,81,0.00,,FEW055,0.00,0.00,VWS V14.01,2013-01-07 07:29:00,
2013-01-07 02:39:00,30.5,25.4,29.97,SW,232,2.0,3.0,81,0.00,,FEW055,0.00,0.00,VWS V14.01,2013-01-07 07:39:00,
2013-01-07 02:49:00,30.3,25.5,29.97,West,269,0.0,4.0,82,0.00,,BKN055,0.00,0.00,VWS V14.01,2013-01-07 07:49:00,
2013-01-07 02:59:00,30.2,25.4,29.97,WSW,245,0.0,5.0,82,0.00,,BKN055,0.00,0.00,VWS V14.01,2013-01-07 07:59:00,
2013-01-07 03:09:00,30.2,25.4,29.98,SW,226,3.0,5.0,82,0.00,,BKN055,0.00,0.00,VWS V14.01,2013-01-07 08:09:00,
2013-01-07 03:19:00,30.5,25.7,29.98,West,270,0.0,7.0,82,0.00,,BKN055,0.00,0.00,VWS V14.01,2013-01-07 08:19:00,
2013-01-07 03:29:00,30.5,25.4,29.98,West,276,1.0,7.0,81,0.00,,BKN055,0.00,0.00,VWS V14.01,2013-01-07 08:29:00,
2013-01-07 03:39:00,30.3,25.5,29.98,West,279,0.0,3.0,82,0.00,,BKN055,0.00,0.00,VWS V14.01,2013-01-07 08:39:00,
2013-01-07 03:49:00,30.3,25.5,29.99,West,278,0.0,3.0,82,0.00,,OVC060,0.00,0.00,VWS V14.01,2013-01-07 08:49:00,
2013-01-07 03:59:00,30.4,25.6,30.00,West,277,0.0,3.0,82,0.00,,OVC060,0.00,0.00,VWS V14.01,2013-01-07 08:59:00,
2013-01-07 04:09:00,30.7,25.6,29.99,West,277,1.0,4.0,81,0.00,,OVC060,0.00,0.00,VWS V14.01,2013-01-07 09:09:00,
2013-01-07 04:19:00,30.8,25.7,30.00,West,277,1.0,3.0,81,0.00,,OVC060,0.00,0.00,VWS V14.01,2013-01-07 09:19:00,
2013-01-07 04:29:00,30.9,25.8,30.00,West,276,0.0,3.0,81,0.00,,OVC060,0.00,0.00,VWS V14.01,2013-01-07 09:29:00,
2013-01-07 04:39:00,31.2,26.1,30.01,West,269,2.0,5.0,81,0.00,,OVC060,0.00,0.00,VWS V14.01,2013-01-07 09:39:00,
2013-01-07 04:49:00,31.5,26.4,30.01,West,279,3.0,6.0,81,0.00,,CLR,0.00,0.00,VWS V14.01,2013-01-07 09:49:00,
2013-01-07 04:59:00,31.6,26.1,30.01,WNW,300,6.0,11.0,80,0.00,,CLR,0.00,0.00,VWS V14.01,2013-01-07 09:59:00,
2013-01-07 05:09:00,32.0,26.2,30.02,NW,306,8.0,13.0,79,0.00,,CLR,0.00,0.00,VWS V14.01,2013-01-07 10:09:00,
2013-01-07 05:19:00,32.1,26.3,30.03,NW,318,3.0,13.0,79,0.00,,CLR,0.00,0.00,VWS V14.01,2013-01-07 10:19:00,
2013-01-07 05:29:00,32.0,26.5,30.04,WNW,300,3.0,11.0,80,0.00,,CLR,0.00,0.00,VWS V14.01,2013-01-07 10:29:00,
2013-01-07 05:39:00,31.9,26.4,30.05,WNW,300,7.0,14.0,80,0.00,,CLR,0.00,0.00,VWS V14.01,2013-01-07 10:39:00,
2013-01-07 05:49:00,31.5,25.8,30.05,NW,315,6.0,13.0,79,0.00,,BKN070,0.00,0.00,VWS V14.01,2013-01-07 10:49:00,
2013-01-07 05:59:00,31.4,25.6,30.07,WNW,293,9.0,12.0,79,0.00,,BKN070,0.00,0.00,VWS V14.01,2013-01-07 10:59:00,
2013-01-07 06:09:00,31.2,25.5,30.07,WNW,303,3.0,13.0,79,0.00,,BKN070,0.00,0.00,VWS V14.01,2013-01-07 11:09:00,
2013-01-07 06:19:00,31.1,25.7,30.07,NNW,336,4.0,7.0,80,0.00,,BKN070,0.00,0.00,VWS V14.01,2013-01-07 11:19:00,
2013-01-07 06:29:00,30.9,25.2,30.08,NW,311,3.0,13.0,79,0.00,,BKN070,0.00,0.00,VWS V14.01,2013-01-07 11:29:00,
2013-01-07 06:39:00,30.6,24.3,30.09,NW,310,9.0,16.0,77,0.00,,BKN070,0.00,0.00,VWS V14.01,2013-01-07 11:39:00,
2013-01-07 06:49:00,29.9,22.6,30.10,NW,308,11.0,16.0,74,0.00,,,0.00,0.00,VWS V14.01,2013-01-07 11:49:00,
2013-01-07 06:59:00,29.2,22.0,30.10,NW,310,9.0,15.0,74,0.00,,,0.00,0.00,VWS V14.01,2013-01-07 11:59:00,
2013-01-07 07:09:00,28.6,21.7,30.11,WNW,302,3.0,12.0,75,0.00,,,0.00,0.00,VWS V14.01,2013-01-07 12:09:00,
2013-01-07 07:19:00,27.9,21.3,30.12,NW,318,5.0,11.0,76,0.00,,,0.00,5.00,VWS V14.01,2013-01-07 12:19:00,
2013-01-07 07:29:00,27.3,20.8,30.12,WNW,301,9.0,13.0,76,0.00,,,0.00,11.00,VWS V14.01,2013-01-07 12:29:00,
2013-01-07 07:39:00,26.7,20.2,30.13,NW,323,5.0,10.0,76,0.00,,,0.00,18.00,VWS V14.01,2013-01-07 12:39:00,
2013-01-07 07:49:00,26.5,20.0,30.14,WNW,302,8.0,10.0,76,0.00,,,0.00,33.00,VWS V14.01,2013-01-07 12:49:00,
2013-01-07 07:59:00,26.2,19.1,30.15,WNW,300,5.0,12.0,74,0.00,,,0.00,47.00,VWS V14.01,2013-01-07 12:59:00,
2013-01-07 08:09:00,26.2,18.7,30.16,NW,323,10.0,10.0,73,0.00,,BKN039,0.00,77.00,VWS V14.01,2013-01-07 13:09:00,
2013-01-07 08:19:00,26.2,18.4,30.17,WNW,298,5.0,12.0,72,0.00,,BKN039,0.00,93.00,VWS V14.01,2013-01-07 13:19:00,
2013-01-07 08:29:00,25.9,17.5,30.18,NW,315,8.0,18.0,70,0.00,,BKN039,0.00,137.00,VWS V14.01,2013-01-07 13:29:00,
2013-01-07 08:39:00,25.2,17.1,30.19,NNW,334,3.0,14.0,71,0.00,,BKN039,0.00,123.00,VWS V14.01,2013-01-07 13:39:00,
2013-01-07 08:49:00,25.0,16.9,30.21,North,360,6.0,14.0,71,0.00,,FEW040,0.00,144.00,VWS V14.01,2013-01-07 13:49:00,
2013-01-07 08:59:00,24.8,16.4,30.21,NW,323,8.0,14.0,70,0.00,,FEW040,0.00,160.00,VWS V14.01,2013-01-07 13:59:00,
2013-01-07 09:09:00,24.4,16.0,30.22,NNW,338,9.0,15.0,70,0.00,,FEW040,0.00,158.00,VWS V14.01,2013-01-07 14:09:00,
2013-01-07 09:19:00,24.0,16.0,30.23,NW,308,12.0,16.0,71,0.00,,FEW040,0.00,172.00,VWS V14.01,2013-01-07 14:19:00,
2013-01-07 09:29:00,23.6,15.6,30.24,NW,319,12.0,18.0,71,0.00,,FEW040,0.00,225.00,VWS V14.01,2013-01-07 14:29:00,
2013-01-07 09:39:00,23.1,15.4,30.24,NW,315,12.0,19.0,72,0.00,,FEW040,0.00,269.00,VWS V14.01,2013-01-07 14:39:00,
2013-01-07 09:49:00,23.2,15.2,30.25,WNW,289,8.0,19.0,71,0.00,,FEW040,0.00,304.00,VWS V14.01,2013-01-07 14:49:00,
2013-01-07 09:59:00,22.9,14.6,30.25,WNW,298,9.0,20.0,70,0.00,,FEW040,0.00,338.00,VWS V14.01,2013-01-07 14:59:00,
2013-01-07 10:09:00,23.0,14.7,30.25,WNW,284,8.0,18.0,70,0.00,,FEW040,0.00,357.00,VWS V14.01,2013-01-07 15:09:00,
2013-01-07 10:19:00,22.9,14.6,30.26,NW,321,11.0,14.0,70,0.00,,FEW040,0.00,369.00,VWS V14.01,2013-01-07 15:19:00,
2013-01-07 10:29:00,23.3,15.0,30.26,WNW,283,3.0,14.0,70,0.00,,FEW040,0.00,381.00,VWS V14.01,2013-01-07 15:29:00,
2013-01-07 10:39:00,22.9,14.6,30.26,NNW,327,10.0,15.0,70,0.00,,FEW040,0.00,397.00,VWS V14.01,2013-01-07 15:39:00,
2013-01-07 10:49:00,22.9,14.3,30.26,NW,315,7.0,15.0,69,0.00,,FEW050,0.00,404.00,VWS V14.01,2013-01-07 15:49:00,
2013-01-07 10:59:00,23.1,14.1,30.26,NW,318,12.0,13.0,68,0.00,,FEW050,0.00,417.00,VWS V14.01,2013-01-07 15:59:00,
2013-01-07 11:09:00,22.9,13.9,30.26,NNW,327,10.0,17.0,68,0.00,,FEW050,0.00,397.00,VWS V14.01,2013-01-07 16:09:00,
2013-01-07 11:19:00,23.3,14.3,30.26,NW,320,8.0,14.0,68,0.00,,FEW050,0.00,367.00,VWS V14.01,2013-01-07 16:19:00,
2013-01-07 11:29:00,23.4,14.1,30.26,NW,322,12.0,16.0,67,0.00,,FEW050,0.00,353.00,VWS V14.01,2013-01-07 16:29:00,
2013-01-07 11:39:00,23.9,13.9,30.26,WNW,294,7.0,13.0,65,0.00,,FEW050,0.00,350.00,VWS V14.01,2013-01-07 16:39:00,
2013-01-07 11:49:00,23.9,13.9,30.26,NW,307,11.0,13.0,65,0.00,,FEW050,0.00,330.00,VWS V14.01,2013-01-07 16:49:00,
2013-01-07 11:59:00,23.9,13.9,30.26,NW,318,7.0,14.0,65,0.00,,FEW050,0.00,230.00,VWS V14.01,2013-01-07 16:59:00,
2013-01-07 12:09:00,24.5,13.7,30.27,WNW,300,7.0,12.0,63,0.00,,FEW050,0.00,290.00,VWS V14.01,2013-01-07 17:09:00,
2013-01-07 12:19:00,24.9,14.1,30.27,NW,319,4.0,13.0,63,0.00,,FEW050,0.00,388.00,VWS V14.01,2013-01-07 17:19:00,
2013-01-07 12:29:00,25.7,14.1,30.27,NNW,333,0.0,9.0,61,0.00,,FEW050,0.00,425.00,VWS V14.01,2013-01-07 17:29:00,
2013-01-07 12:39:00,26.2,14.2,30.27,WNW,299,1.0,9.0,60,0.00,,FEW050,0.00,422.00,VWS V14.01,2013-01-07 17:39:00,
2013-01-07 12:49:00,26.5,14.1,30.27,NW,309,1.0,8.0,59,0.00,,CLR,0.00,413.00,VWS V14.01,2013-01-07 17:49:00,
2013-01-07 12:59:00,27.2,14.4,30.27,WNW,284,0.0,7.0,58,0.00,,CLR,0.00,408.00,VWS V14.01,2013-01-07 17:59:00,
2013-01-07 13:09:00,27.6,14.4,30.27,West,272,0.0,9.0,57,0.00,,CLR,0.00,396.00,VWS V14.01,2013-01-07 18:09:00,
2013-01-07 13:19:00,28.2,14.5,30.27,WNW,286,4.0,7.0,56,0.00,,CLR,0.00,385.00,VWS V14.01,2013-01-07 18:19:00,
2013-01-07 13:29:00,27.6,13.6,30.27,West,267,1.0,10.0,55,0.00,,CLR,0.00,376.00,VWS V14.01,2013-01-07 18:29:00,
2013-01-07 13:39:00,28.3,13.8,30.28,West,276,5.0,10.0,54,0.00,,CLR,0.00,360.00,VWS V14.01,2013-01-07 18:39:00,
2013-01-07 13:49:00,28.1,13.6,30.29,West,263,2.0,10.0,54,0.00,,CLR,0.00,345.00,VWS V14.01,2013-01-07 18:49:00,
2013-01-07 13:59:00,27.9,12.6,30.29,West,271,4.0,11.0,52,0.00,,CLR,0.00,327.00,VWS V14.01,2013-01-07 18:59:00,
2013-01-07 14:09:00,27.8,12.5,30.29,West,259,1.0,10.0,52,0.00,,CLR,0.00,309.00,VWS V14.01,2013-01-07 19:09:00,
2013-01-07 14:19:00,27.8,10.2,30.29,WNW,294,2.0,8.0,47,0.00,,CLR,0.00,287.00,VWS V14.01,2013-01-07 19:19:00,
2013-01-07 14:29:00,28.1,10.9,30.29,WNW,291,3.0,9.0,48,0.00,,CLR,0.00,255.00,VWS V14.01,2013-01-07 19:29:00,
2013-01-07 14:39:00,27.8,9.7,30.30,NW,321,7.0,9.0,46,0.00,,CLR,0.00,225.00,VWS V14.01,2013-01-07 19:39:00,
2013-01-07 14:49:00,28.2,11.0,30.30,SW,236,1.0,8.0,48,0.00,,CLR,0.00,199.00,VWS V14.01,2013-01-07 19:49:00,
2013-01-07 14:59:00,29.1,11.9,30.30,WSW,239,0.0,6.0,48,0.00,,CLR,0.00,169.00,VWS V14.01,2013-01-07 19:59:00,
2013-01-07 15:09:00,29.1,11.9,30.30,WSW,241,3.0,4.0,48,0.00,,CLR,0.00,139.00,VWS V14.01,2013-01-07 20:09:00,
2013-01-07 15:19:00,28.6,12.3,30.31,WNW,285,0.0,5.0,50,0.00,,CLR,0.00,111.00,VWS V14.01,2013-01-07 20:19:00,
2013-01-07 15:29:00,28.5,12.7,30.32,WNW,284,2.0,5.0,51,0.00,,CLR,0.00,86.00,VWS V14.01,2013-01-07 20:29:00,
2013-01-07 15:39:00,28.1,12.3,30.32,WNW,283,3.0,7.0,51,0.00,,CLR,0.00,25.00,VWS V14.01,2013-01-07 20:39:00,
2013-01-07 15:49:00,27.7,12.4,30.32,West,273,0.0,6.0,52,0.00,,CLR,0.00,25.00,VWS V14.01,2013-01-07 20:49:00,
2013-01-07 15:59:00,27.5,12.6,30.32,West,271,1.0,6.0,53,0.00,,CLR,0.00,18.00,VWS V14.01,2013-01-07 20:59:00,
2013-01-07 16:09:00,27.1,12.2,30.33,West,271,0.0,6.0,53,0.00,,CLR,0.00,14.00,VWS V14.01,2013-01-07 21:09:00,
2013-01-07 16:19:00,27.0,12.2,30.33,West,271,0.0,4.0,53,0.00,,CLR,0.00,11.00,VWS V14.01,2013-01-07 21:19:00,
2013-01-07 16:29:00,26.5,11.7,30.33,West,271,0.0,4.0,53,0.00,,CLR,0.00,5.00,VWS V14.01,2013-01-07 21:29:00,
2013-01-07 16:39:00,26.1,11.7,30.33,West,271,0.0,3.0,54,0.00,,CLR,0.00,0.00,VWS V14.01,2013-01-07 21:39:00,
2013-01-07 16:49:00,25.6,11.7,30.32,West,271,1.0,2.0,55,0.00,,CLR,0.00,0.00,VWS V14.01,2013-01-07 21:49:00,
2013-01-07 16:59:00,25.3,11.4,30.32,West,271,0.0,5.0,55,0.00,,CLR,0.00,0.00,VWS V14.01,2013-01-07 21:59:00,
2013-01-07 17:09:00,25.0,11.1,30.32,West,271,0.0,4.0,55,0.00,,CLR,0.00,0.00,VWS V14.01,2013-01-07 22:09:00,
2013-01-07 17:19:00,24.6,11.2,30.33,West,271,0.0,1.0,56,0.00,,CLR,0.00,0.00,VWS V14.01,2013-01-07 22:19:00,
2013-01-07 17:29:00,24.2,10.8,30.34,West,271,0.0,1.0,56,0.00,,CLR,0.00,0.00,VWS V14.01,2013-01-07 22:29:00,
2013-01-07 17:39:00,24.2,10.8,30.34,West,271,0.0,4.0,56,0.00,,CLR,0.00,0.00,VWS V14.01,2013-01-07 22:39:00,
2013-01-07 17:49:00,24.2,10.4,30.34,West,271,0.0,3.0,55,0.00,,CLR,0.00,0.00,VWS V14.01,2013-01-07 22:49:00,
2013-01-07 17:59:00,23.9,9.7,30.34,West,271,0.0,2.0,54,0.00,,CLR,0.00,0.00,VWS V14.01,2013-01-07 22:59:00,
2013-01-07 18:09:00,23.8,9.2,30.35,West,270,0.0,3.0,53,0.00,,CLR,0.00,0.00,VWS V14.01,2013-01-07 23:09:00,
2013-01-07 18:19:00,23.6,10.6,30.34,West,271,1.0,3.0,57,0.00,,CLR,0.00,0.00,VWS V14.01,2013-01-07 23:19:00,
2013-01-07 18:29:00,23.4,10.4,30.34,West,269,0.0,1.0,57,0.00,,CLR,0.00,0.00,VWS V14.01,2013-01-07 23:29:00,
2013-01-07 18:39:00,23.2,10.2,30.34,West,271,1.0,3.0,57,0.00,,CLR,0.00,0.00,VWS V14.01,2013-01-07 23:39:00,
2013-01-07 18:49:00,23.2,10.2,30.34,West,271,0.0,2.0,57,0.00,,CLR,0.00,0.00,VWS V14.01,2013-01-07 23:49:00,
2013-01-07 18:59:00,23.5,9.3,30.33,West,271,0.0,3.0,54,0.00,,CLR,0.00,0.00,VWS V14.01,2013-01-07 23:59:00,
2013-01-07 19:09:00,24.0,10.2,30.33,West,269,0.0,2.0,55,0.00,,CLR,0.00,0.00,VWS V14.01,2013-01-08 00:09:00,
2013-01-07 19:19:00,24.3,9.2,30.33,West,271,0.0,2.0,52,0.00,,CLR,0.00,0.00,VWS V14.01,2013-01-08 00:19:00,
2013-01-07 19:29:00,23.9,9.7,30.33,West,271,0.0,2.0,54,0.00,,CLR,0.00,0.00,VWS V14.01,2013-01-08 00:29:00,
2013-01-07 19:39:00,23.6,9.8,30.33,West,271,0.0,2.0,55,0.00,,CLR,0.00,0.00,VWS V14.01,2013-01-08 00:39:00,
2013-01-07 19:49:00,23.4,9.2,30.33,West,269,0.0,3.0,54,0.00,,CLR,0.00,0.00,VWS V14.01,2013-01-08 00:49:00,
2013-01-07 19:59:00,22.8,9.9,30.33,West,271,3.0,4.0,57,0.00,,CLR,0.00,0.00,VWS V14.01,2013-01-08 00:59:00,
2013-01-07 20:09:00,22.7,9.8,30.33,West,269,2.0,3.0,57,0.00,,CLR,0.00,0.00,VWS V14.01,2013-01-08 01:09:00,
2013-01-07 20:19:00,22.4,9.1,30.32,West,270,3.0,7.0,56,0.00,,CLR,0.00,0.00,VWS V14.01,2013-01-08 01:19:00,
2013-01-07 20:29:00,22.1,9.6,30.32,West,269,3.0,4.0,58,0.00,,CLR,0.00,0.00,VWS V14.01,2013-01-08 01:29:00,
2013-01-07 20:39:00,22.2,10.1,30.32,West,270,1.0,5.0,59,0.00,,CLR,0.00,0.00,VWS V14.01,2013-01-08 01:39:00,
2013-01-07 20:49:00,22.2,10.1,30.32,West,269,3.0,6.0,59,0.00,,CLR,0.00,0.00,VWS V14.01,2013-01-08 01:49:00,
2013-01-07 20:59:00,21.5,9.8,30.32,SSW,198,4.0,7.0,60,0.00,,CLR,0.00,0.00,VWS V14.01,2013-01-08 01:59:00,
2013-01-07 21:09:00,20.8,9.9,30.32,SSW,192,4.0,6.0,62,0.00,,CLR,0.00,0.00,VWS V14.01,2013-01-08 02:09:00,
2013-01-07 21:19:00,20.5,10.3,30.32,SSW,200,0.0,4.0,64,0.00,,CLR,0.00,0.00,VWS V14.01,2013-01-08 02:19:00,
2013-01-07 21:29:00,20.3,10.1,30.32,SSW,208,4.0,5.0,64,0.00,,CLR,0.00,0.00,VWS V14.01,2013-01-08 02:29:00,
2013-01-07 21:39:00,21.4,11.1,30.32,SSW,203,5.0,7.0,64,0.00,,CLR,0.00,0.00,VWS V14.01,2013-01-08 02:39:00,
2013-01-07 21:49:00,21.0,10.8,30.32,SSW,203,5.0,7.0,64,0.00,,CLR,0.00,0.00,VWS V14.01,2013-01-08 02:49:00,
2013-01-07 21:59:00,19.8,10.3,30.32,SSW,202,5.0,6.0,66,0.00,,CLR,0.00,0.00,VWS V14.01,2013-01-08 02:59:00,
2013-01-07 22:09:00,20.6,11.7,30.31,SSW,209,7.0,7.0,68,0.00,,CLR,0.00,0.00,VWS V14.01,2013-01-08 03:09:00,
2013-01-07 22:19:00,21.5,12.3,30.32,SSW,210,3.0,7.0,67,0.00,,CLR,0.00,0.00,VWS V14.01,2013-01-08 03:19:00,
2013-01-07 22:29:00,21.1,11.9,30.32,SSW,209,3.0,6.0,67,0.00,,CLR,0.00,0.00,VWS V14.01,2013-01-08 03:29:00,
2013-01-07 22:39:00,20.4,11.5,30.32,SSW,209,0.0,3.0,68,0.00,,CLR,0.00,0.00,VWS V14.01,2013-01-08 03:39:00,
2013-01-07 22:49:00,20.3,11.8,30.31,SSW,209,0.0,1.0,69,0.00,,CLR,0.00,0.00,VWS V14.01,2013-01-08 03:49:00,
2013-01-07 22:59:00,20.2,12.0,30.31,SSW,209,0.0,3.0,70,0.00,,CLR,0.00,0.00,VWS V14.01,2013-01-08 03:59:00,
2013-01-07 23:09:00,20.1,11.9,30.30,SSW,210,3.0,4.0,70,0.00,,CLR,0.00,0.00,VWS V14.01,2013-01-08 04:09:00,
2013-01-07 23:19:00,20.2,12.3,30.31,SW,223,1.0,5.0,71,0.00,,CLR,0.00,0.00,VWS V14.01,2013-01-08 04:19:00,
2013-01-07 23:29:00,20.4,12.2,30.30,SSW,199,2.0,4.0,70,0.00,,CLR,0.00,0.00,VWS V14.01,2013-01-08 04:29:00,
2013-01-07 23:39:00,19.8,11.9,30.30,SSW,199,0.0,3.0,71,0.00,,CLR,0.00,0.00,VWS V14.01,2013-01-08 04:39:00,
2013-01-07 23:49:00,19.5,12.0,30.29,SSW,199,0.0,0.0,72,0.00,,CLR,0.00,0.00,VWS V14.01,2013-01-08 04:49:00,
2013-01-07 23:59:00,19.7,11.8,30.29,WSW,248,4.0,4.0,71,0.00,,CLR,0.00,0.00,VWS V14.01,2013-01-08 04:59:00,